Location: Sungai Bunut
(2.6333°N, 113.7333°E)
Time: 20:06:39
(UTC+00:00)

Vanguard 3 - Pass Details

Date: 08 December 2023
Orbit: 508 x 3239 km, 33.4° (Epoch: 24 February)

Event Time Altitude Azimuth Distance (km) Brightness Sun altitude
Rises 13:11:14 0° 272° (W) 7,056 12.6 -40.8°
Reaches altitude 10° 13:18:12 10° 286° (WNW) 5,731 11.8 -42.3°
Maximum altitude 13:29:26 21° 328° (NNW) 4,051 10.6 -44.7°
Enters shadow 13:30:53 21° 336° (NNW) 3,949 10.5 -45.1°
Drops below altitude 10° 13:37:45 10° 14° (NNE) 4,091 - -46.5°
Sets 13:41:38 0° 30° (NNE) 4,636 - -47.4°
